Time,TemperatureF,DewpointF,PressureIn,WindDirection,WindDirectionDegrees,WindSpeedMPH,WindSpeedGustMPH,Humidity,HourlyPrecipIn,Conditions,Clouds,dailyrainin,SoftwareType,DateUTC
2013-01-01 00:01:00,37.9,33.2,30.27,WSW,247,0.0,0.0,83,0.00,,,0.00,WUHU21623XXSP,2013-01-01 08:01:00,
2013-01-01 00:06:00,37.9,33.2,30.27,WSW,247,0.0,0.0,83,0.00,,,0.00,WUHU21623XXSP,2013-01-01 08:06:00,
2013-01-01 00:11:00,37.8,33.0,30.27,WSW,247,0.0,0.0,83,0.00,,,0.00,WUHU21623XXSP,2013-01-01 08:11:00,
2013-01-01 00:16:00,37.6,32.9,30.27,WSW,247,0.0,0.0,83,0.00,,,0.00,WUHU21623XXSP,2013-01-01 08:16:00,
2013-01-01 00:21:00,37.4,32.9,30.26,WSW,247,0.0,0.0,84,0.00,,,0.00,WUHU21623XXSP,2013-01-01 08:21:00,
2013-01-01 00:26:00,37.4,33.0,30.27,North,0,0.0,0.0,84,0.00,,,0.00,WUHU21623XXSP,2013-01-01 08:26:00,
2013-01-01 00:31:00,37.2,32.8,30.26,North,0,0.0,0.0,84,0.00,,,0.00,WUHU21623XXSP,2013-01-01 08:31:00,
2013-01-01 00:36:00,37.2,32.8,30.26,North,0,0.0,0.0,84,0.00,,,0.00,WUHU21623XXSP,2013-01-01 08:36:00,
2013-01-01 00:41:00,37.0,32.6,30.25,WSW,247,0.0,0.0,84,0.00,,,0.00,WUHU21623XXSP,2013-01-01 08:41:00,
2013-01-01 00:46:00,37.0,32.6,30.25,WSW,247,0.0,0.0,84,0.00,,,0.00,WUHU21623XXSP,2013-01-01 08:46:00,
2013-01-01 00:51:00,36.9,32.6,30.25,WSW,247,0.0,0.0,84,0.00,,,0.00,WUHU21623XXSP,2013-01-01 08:51:00,
2013-01-01 00:56:00,36.7,32.4,30.25,WSW,247,0.0,0.0,84,0.00,,,0.00,WUHU21623XXSP,2013-01-01 08:56:00,
2013-01-01 01:01:00,36.7,32.3,30.24,WSW,247,0.0,0.0,84,0.00,,,0.00,WUHU21623XXSP,2013-01-01 09:01:00,
2013-01-01 01:06:00,36.7,32.3,30.24,WSW,247,0.0,0.0,84,0.00,,,0.00,WUHU21623XXSP,2013-01-01 09:06:00,
2013-01-01 01:11:00,36.5,32.4,30.24,WSW,247,0.0,0.0,85,0.00,,,0.00,WUHU21623XXSP,2013-01-01 09:11:00,
2013-01-01 01:16:00,36.5,32.4,30.24,WSW,247,0.0,0.0,85,0.00,,,0.00,WUHU21623XXSP,2013-01-01 09:16:00,
2013-01-01 01:21:00,36.3,32.2,30.25,WSW,247,0.0,0.0,85,0.00,,,0.00,WUHU21623XXSP,2013-01-01 09:21:00,
2013-01-01 01:26:00,36.3,32.2,30.25,WSW,247,0.0,0.0,85,0.00,,,0.00,WUHU21623XXSP,2013-01-01 09:26:00,
2013-01-01 01:31:00,36.3,32.2,30.26,WSW,247,0.0,0.0,85,0.00,,,0.00,WUHU21623XXSP,2013-01-01 09:31:00,
2013-01-01 01:36:00,36.3,32.2,30.26,WSW,247,0.0,0.0,85,0.00,,,0.00,WUHU21623XXSP,2013-01-01 09:36:00,
2013-01-01 01:41:00,36.1,32.3,30.26,WSW,247,0.0,0.0,86,0.00,,,0.00,WUHU21623XXSP,2013-01-01 09:41:00,
2013-01-01 01:46:00,36.1,32.3,30.27,WSW,247,0.0,0.0,86,0.00,,,0.00,WUHU21623XXSP,2013-01-01 09:46:00,
2013-01-01 01:51:00,36.1,32.3,30.27,WSW,247,0.0,0.0,86,0.00,,,0.00,WUHU21623XXSP,2013-01-01 09:51:00,
2013-01-01 01:56:00,36.0,32.1,30.27,WSW,247,0.0,0.0,86,0.00,,,0.00,WUHU21623XXSP,2013-01-01 09:56:00,
2013-01-01 02:01:00,36.0,32.1,30.27,WSW,247,0.0,0.0,86,0.00,,,0.00,WUHU21623XXSP,2013-01-01 10:01:00,
2013-01-01 02:06:00,35.8,31.9,30.26,North,0,0.0,0.0,86,0.00,,,0.00,WUHU21623XXSP,2013-01-01 10:06:00,
2013-01-01 02:11:00,35.8,31.9,30.26,North,0,0.0,0.0,86,0.00,,,0.00,WUHU21623XXSP,2013-01-01 10:11:00,
2013-01-01 02:16:00,35.8,31.9,30.27,WSW,247,0.0,0.0,86,0.00,,,0.00,WUHU21623XXSP,2013-01-01 10:16:00,
2013-01-01 02:21:00,36.0,32.1,30.27,WSW,247,0.0,0.0,86,0.00,,,0.00,WUHU21623XXSP,2013-01-01 10:21:00,
2013-01-01 02:26:00,36.1,32.1,30.27,WSW,247,0.0,0.0,87,0.00,,,0.00,WUHU21623XXSP,2013-01-01 10:26:00,
2013-01-01 02:32:00,36.3,32.8,30.27,WSW,247,0.0,0.0,87,0.00,,,0.00,WUHU21623XXSP,2013-01-01 10:32:00,
2013-01-01 02:36:00,36.3,32.8,30.26,WSW,247,0.0,0.0,87,0.00,,,0.00,WUHU21623XXSP,2013-01-01 10:36:00,
2013-01-01 02:41:00,36.5,32.9,30.26,WSW,247,0.0,0.0,87,0.00,,,0.00,WUHU21623XXSP,2013-01-01 10:41:00,
2013-01-01 02:46:00,36.5,32.9,30.27,WSW,247,0.0,0.0,87,0.00,,,0.00,WUHU21623XXSP,2013-01-01 10:46:00,
2013-01-01 02:51:00,36.5,32.9,30.26,WSW,247,0.0,0.0,87,0.00,,,0.00,WUHU21623XXSP,2013-01-01 10:51:00,
2013-01-01 02:56:00,36.5,32.9,30.26,WSW,247,0.0,0.0,87,0.00,,,0.00,WUHU21623XXSP,2013-01-01 10:56:00,
2013-01-01 03:01:00,36.3,32.8,30.26,WSW,247,0.0,0.0,87,0.00,,,0.00,WUHU21623XXSP,2013-01-01 11:01:00,
2013-01-01 03:16:00,36.3,32.8,30.26,WSW,247,0.0,0.0,87,0.00,,,0.00,WUHU21623XXSP,2013-01-01 11:16:00,
2013-01-01 03:21:00,36.1,32.6,30.26,WSW,247,0.0,0.0,87,0.00,,,0.00,WUHU21623XXSP,2013-01-01 11:21:00,
2013-01-01 03:26:00,36.1,32.6,30.26,WSW,247,0.0,0.0,87,0.00,,,0.00,WUHU21623XXSP,2013-01-01 11:26:00,
2013-01-01 03:31:00,36.0,32.4,30.26,WSW,247,0.0,0.0,87,0.00,,,0.00,WUHU21623XXSP,2013-01-01 11:31:00,
2013-01-01 03:36:00,35.8,32.2,30.25,WSW,247,0.0,0.0,87,0.00,,,0.00,WUHU21623XXSP,2013-01-01 11:36:00,
2013-01-01 03:41:00,35.8,32.2,30.26,WSW,247,0.0,0.0,87,0.00,,,0.00,WUHU21623XXSP,2013-01-01 11:41:00,
2013-01-01 03:46:00,35.8,32.5,30.26,WSW,247,0.0,0.0,88,0.00,,,0.00,WUHU21623XXSP,2013-01-01 11:46:00,
2013-01-01 03:51:00,35.8,32.5,30.26,WSW,247,0.0,0.0,88,0.00,,,0.00,WUHU21623XXSP,2013-01-01 11:51:00,
2013-01-01 03:56:00,35.8,32.5,30.26,WSW,247,0.0,0.0,88,0.00,,,0.00,WUHU21623XXSP,2013-01-01 11:56:00,
2013-01-01 04:01:00,35.8,32.5,30.26,WSW,247,0.0,0.0,88,0.00,,,0.00,WUHU21623XXSP,2013-01-01 12:01:00,
2013-01-01 04:07:00,35.8,32.5,30.26,WSW,247,0.0,0.0,88,0.00,,,0.00,WUHU21623XXSP,2013-01-01 12:07:00,
2013-01-01 04:12:00,35.8,32.5,30.26,North,0,0.0,0.0,88,0.00,,,0.00,WUHU21623XXSP,2013-01-01 12:12:00,
2013-01-01 04:17:00,36.0,32.7,30.26,North,0,0.0,0.0,88,0.00,,,0.00,WUHU21623XXSP,2013-01-01 12:17:00,
2013-01-01 04:22:00,36.1,32.9,30.27,WSW,247,0.0,0.0,88,0.00,,,0.00,WUHU21623XXSP,2013-01-01 12:22:00,
2013-01-01 04:27:00,36.3,33.0,30.26,WSW,247,0.0,0.0,88,0.00,,,0.00,WUHU21623XXSP,2013-01-01 12:27:00,
2013-01-01 04:32:00,36.5,33.5,30.26,WSW,247,0.0,0.0,89,0.00,,,0.00,WUHU21623XXSP,2013-01-01 12:32:00,
2013-01-01 04:37:00,36.7,33.7,30.26,WSW,247,0.0,0.0,89,0.00,,,0.00,WUHU21623XXSP,2013-01-01 12:37:00,
2013-01-01 04:42:00,37.0,34.1,30.26,WSW,247,0.0,0.0,89,0.00,,,0.00,WUHU21623XXSP,2013-01-01 12:42:00,
2013-01-01 04:47:00,37.0,34.1,30.26,WSW,247,0.0,0.0,89,0.00,,,0.00,WUHU21623XXSP,2013-01-01 12:47:00,
2013-01-01 04:52:00,37.2,34.2,30.26,WSW,247,0.0,0.0,89,0.00,,,0.00,WUHU21623XXSP,2013-01-01 12:52:00,
2013-01-01 04:57:00,37.2,34.2,30.26,WSW,247,0.0,0.0,89,0.00,,,0.00,WUHU21623XXSP,2013-01-01 12:57:00,
2013-01-01 05:02:00,37.6,34.6,30.26,WSW,247,0.0,0.0,89,0.00,,,0.00,WUHU21623XXSP,2013-01-01 13:02:00,
2013-01-01 05:07:00,37.8,34.8,30.26,WSW,247,0.0,0.0,89,0.00,,,0.00,WUHU21623XXSP,2013-01-01 13:07:00,
2013-01-01 05:12:00,37.9,35.0,30.26,WSW,247,0.0,0.0,89,0.00,,,0.00,WUHU21623XXSP,2013-01-01 13:12:00,
2013-01-01 05:17:00,37.9,35.0,30.26,WSW,247,0.0,0.0,89,0.00,,,0.00,WUHU21623XXSP,2013-01-01 13:17:00,
2013-01-01 05:22:00,38.1,35.0,30.26,WSW,247,0.0,0.0,89,0.00,,,0.00,WUHU21623XXSP,2013-01-01 13:22:00,
2013-01-01 05:27:00,38.3,35.3,30.27,WSW,247,0.0,0.0,89,0.00,,,0.00,WUHU21623XXSP,2013-01-01 13:27:00,
2013-01-01 05:32:00,38.5,35.5,30.26,WSW,247,0.0,0.0,89,0.00,,,0.00,WUHU21623XXSP,2013-01-01 13:32:00,
2013-01-01 05:37:00,38.5,35.5,30.27,WSW,247,0.0,0.0,89,0.00,,,0.00,WUHU21623XXSP,2013-01-01 13:37:00,
2013-01-01 05:42:00,38.5,35.5,30.26,WSW,247,0.0,0.0,89,0.00,,,0.00,WUHU21623XXSP,2013-01-01 13:42:00,
2013-01-01 05:47:00,38.7,35.5,30.26,WSW,247,0.0,0.0,89,0.00,,,0.00,WUHU21623XXSP,2013-01-01 13:47:00,
2013-01-01 05:52:00,38.8,35.9,30.26,WSW,247,0.0,0.0,89,0.00,,,0.00,WUHU21623XXSP,2013-01-01 13:52:00,
2013-01-01 05:57:00,38.8,35.9,30.27,WSW,247,0.0,0.0,89,0.00,,,0.00,WUHU21623XXSP,2013-01-01 13:57:00,
2013-01-01 06:02:00,39.0,36.3,30.27,WSW,247,0.0,0.0,90,0.00,,,0.00,WUHU21623XXSP,2013-01-01 14:02:00,
2013-01-01 06:07:00,39.0,36.3,30.28,WSW,247,0.0,0.0,90,0.00,,,0.00,WUHU21623XXSP,2013-01-01 14:07:00,
2013-01-01 06:12:00,39.2,36.3,30.27,WSW,247,0.0,0.0,90,0.00,,,0.00,WUHU21623XXSP,2013-01-01 14:12:00,
2013-01-01 06:17:00,39.4,36.7,30.27,WSW,247,0.0,0.0,90,0.00,,,0.00,WUHU21623XXSP,2013-01-01 14:17:00,
2013-01-01 06:22:00,39.4,36.7,30.28,WSW,247,0.0,0.0,90,0.00,,,0.00,WUHU21623XXSP,2013-01-01 14:22:00,
2013-01-01 06:27:00,39.6,36.9,30.27,WSW,247,0.0,0.0,90,0.00,,,0.00,WUHU21623XXSP,2013-01-01 14:27:00,
2013-01-01 06:32:00,39.6,36.9,30.28,WSW,247,0.0,0.0,90,0.00,,,0.00,WUHU21623XXSP,2013-01-01 14:32:00,
2013-01-01 06:37:00,39.7,37.0,30.28,WSW,247,0.0,0.0,90,0.00,,,0.00,WUHU21623XXSP,2013-01-01 14:37:00,
2013-01-01 06:42:00,39.7,37.0,30.27,WSW,247,0.0,0.0,90,0.00,,,0.00,WUHU21623XXSP,2013-01-01 14:42:00,
2013-01-01 06:47:00,39.9,37.2,30.28,WSW,247,0.0,0.0,90,0.00,,,0.00,WUHU21623XXSP,2013-01-01 14:47:00,
2013-01-01 06:52:00,39.9,37.2,30.28,WSW,247,0.0,0.0,90,0.00,,,0.00,WUHU21623XXSP,2013-01-01 14:52:00,
2013-01-01 06:57:00,40.1,37.4,30.27,WSW,247,0.0,0.0,90,0.00,,,0.00,WUHU21623XXSP,2013-01-01 14:57:00,
2013-01-01 07:02:00,40.1,37.4,30.27,WSW,247,0.0,0.0,90,0.00,,,0.00,WUHU21623XXSP,2013-01-01 15:02:00,
2013-01-01 07:07:00,40.3,37.6,30.27,WSW,247,0.0,0.0,90,0.00,,,0.00,WUHU21623XXSP,2013-01-01 15:07:00,
2013-01-01 07:12:00,40.3,37.6,30.28,North,0,0.0,0.0,90,0.00,,,0.00,WUHU21623XXSP,2013-01-01 15:12:00,
2013-01-01 07:17:00,40.5,37.8,30.27,WSW,247,0.0,0.0,90,0.00,,,0.00,WUHU21623XXSP,2013-01-01 15:17:00,
2013-01-01 07:22:00,40.6,37.6,30.27,WSW,247,0.0,0.0,89,0.00,,,0.00,WUHU21623XXSP,2013-01-01 15:22:00,
2013-01-01 07:27:00,40.5,37.5,30.27,WSW,247,0.0,0.0,89,0.00,,,0.00,WUHU21623XXSP,2013-01-01 15:27:00,
2013-01-01 07:32:00,40.3,37.3,30.27,WSW,247,0.0,0.0,89,0.00,,,0.00,WUHU21623XXSP,2013-01-01 15:32:00,
2013-01-01 07:37:00,40.3,37.3,30.27,WSW,247,0.0,0.0,89,0.00,,,0.00,WUHU21623XXSP,2013-01-01 15:37:00,
2013-01-01 07:42:00,40.1,37.1,30.27,WSW,247,0.0,0.0,89,0.00,,,0.00,WUHU21623XXSP,2013-01-01 15:42:00,
2013-01-01 07:47:00,39.9,36.9,30.27,WSW,247,0.0,0.0,89,0.00,,,0.00,WUHU21623XXSP,2013-01-01 15:47:00,
2013-01-01 07:52:00,39.7,36.7,30.27,WSW,247,0.0,0.0,89,0.00,,,0.00,WUHU21623XXSP,2013-01-01 15:52:00,
2013-01-01 07:57:00,39.6,36.6,30.27,WSW,247,0.0,0.0,89,0.00,,,0.00,WUHU21623XXSP,2013-01-01 15:57:00,
2013-01-01 08:02:00,39.6,36.6,30.27,WSW,247,0.0,0.0,89,0.00,,,0.00,WUHU21623XXSP,2013-01-01 16:02:00,
2013-01-01 08:07:00,39.6,36.6,30.27,WSW,247,0.0,0.0,89,0.00,,,0.00,WUHU21623XXSP,2013-01-01 16:07:00,
2013-01-01 08:12:00,39.7,36.7,30.27,NW,315,0.0,0.0,89,0.00,,,0.00,WUHU21623XXSP,2013-01-01 16:12:00,
2013-01-01 08:17:00,39.7,36.7,30.27,NW,315,0.0,0.0,89,0.00,,,0.00,WUHU21623XXSP,2013-01-01 16:17:00,
2013-01-01 08:22:00,39.9,36.9,30.28,NW,315,0.0,0.0,89,0.00,,,0.00,WUHU21623XXSP,2013-01-01 16:22:00,
2013-01-01 08:27:00,40.3,37.3,30.28,NW,315,0.0,0.0,89,0.00,,,0.00,WUHU21623XXSP,2013-01-01 16:27:00,
2013-01-01 08:32:00,40.6,37.6,30.28,NW,315,0.0,0.0,89,0.00,,,0.00,WUHU21623XXSP,2013-01-01 16:32:00,
2013-01-01 08:37:00,40.8,37.8,30.28,NW,315,0.0,0.0,89,0.00,,,0.00,WUHU21623XXSP,2013-01-01 16:37:00,
2013-01-01 08:42:00,41.2,38.2,30.28,North,0,0.0,0.0,89,0.00,,,0.00,WUHU21623XXSP,2013-01-01 16:42:00,
2013-01-01 08:47:00,41.5,38.5,30.29,North,0,0.0,0.0,89,0.00,,,0.00,WUHU21623XXSP,2013-01-01 16:47:00,
2013-01-01 08:52:00,41.9,38.9,30.29,North,0,0.0,0.0,89,0.00,,,0.00,WUHU21623XXSP,2013-01-01 16:52:00,
2013-01-01 08:57:00,42.1,38.8,30.29,North,0,0.0,0.0,88,0.00,,,0.00,WUHU21623XXSP,2013-01-01 16:57:00,
2013-01-01 09:02:00,42.4,38.8,30.29,North,0,0.0,0.0,87,0.00,,,0.00,WUHU21623XXSP,2013-01-01 17:02:00,
2013-01-01 09:07:00,42.6,38.7,30.29,North,0,0.0,0.0,86,0.00,,,0.00,WUHU21623XXSP,2013-01-01 17:07:00,
2013-01-01 09:12:00,42.8,38.6,30.29,NNW,337,0.0,0.0,85,0.00,,,0.00,WUHU21623XXSP,2013-01-01 17:12:00,
2013-01-01 09:17:00,43.0,38.4,30.30,NNW,337,0.0,0.0,84,0.00,,,0.00,WUHU21623XXSP,2013-01-01 17:17:00,
2013-01-01 09:22:00,43.2,38.3,30.30,North,0,0.0,0.0,83,0.00,,,0.00,WUHU21623XXSP,2013-01-01 17:22:00,
2013-01-01 09:27:00,43.5,38.4,30.31,North,0,0.0,0.0,82,0.00,,,0.00,WUHU21623XXSP,2013-01-01 17:27:00,
2013-01-01 09:32:00,43.5,38.4,30.31,North,0,0.0,0.0,82,0.00,,,0.00,WUHU21623XXSP,2013-01-01 17:32:00,
2013-01-01 09:37:00,43.9,38.7,30.30,North,0,0.0,0.0,82,0.00,,,0.00,WUHU21623XXSP,2013-01-01 17:37:00,
2013-01-01 09:42:00,44.1,38.9,30.31,North,0,0.0,0.0,82,0.00,,,0.00,WUHU21623XXSP,2013-01-01 17:42:00,
2013-01-01 09:47:00,44.4,39.0,30.30,North,0,0.0,0.0,81,0.00,,,0.00,WUHU21623XXSP,2013-01-01 17:47:00,
2013-01-01 09:52:00,44.6,39.1,30.30,SSE,157,0.0,0.0,81,0.00,,,0.00,WUHU21623XXSP,2013-01-01 17:52:00,
2013-01-01 09:57:00,45.0,39.2,30.30,SE,135,0.0,0.0,80,0.00,,,0.00,WUHU21623XXSP,2013-01-01 17:57:00,
2013-01-01 10:02:00,45.1,39.0,30.30,SE,135,0.0,0.0,79,0.00,,,0.00,WUHU21623XXSP,2013-01-01 18:02:00,
2013-01-01 10:07:00,45.3,39.2,30.31,North,0,0.0,0.0,79,0.00,,,0.00,WUHU21623XXSP,2013-01-01 18:07:00,
2013-01-01 10:12:00,45.7,39.2,30.30,North,0,0.0,0.0,78,0.00,,,0.00,WUHU21623XXSP,2013-01-01 18:12:00,
2013-01-01 10:17:00,46.0,39.6,30.30,ENE,67,0.0,0.0,78,0.00,,,0.00,WUHU21623XXSP,2013-01-01 18:17:00,
2013-01-01 10:22:00,46.2,39.4,30.30,NNE,22,0.0,0.0,77,0.00,,,0.00,WUHU21623XXSP,2013-01-01 18:22:00,
2013-01-01 10:27:00,46.2,39.1,30.30,North,0,0.0,8.7,76,0.00,,,0.00,WUHU21623XXSP,2013-01-01 18:27:00,
2013-01-01 10:32:00,46.6,39.4,30.29,North,0,0.0,8.7,76,0.00,,,0.00,WUHU21623XXSP,2013-01-01 18:32:00,
2013-01-01 10:37:00,46.8,39.3,30.29,North,0,6.5,6.5,75,0.00,,,0.00,WUHU21623XXSP,2013-01-01 18:37:00,
2013-01-01 10:42:00,47.1,39.2,30.30,North,0,0.0,0.0,74,0.00,,,0.00,WUHU21623XXSP,2013-01-01 18:42:00,
2013-01-01 10:47:00,46.9,38.4,30.29,North,0,0.0,0.0,72,0.00,,,0.00,WUHU21623XXSP,2013-01-01 18:47:00,
2013-01-01 10:52:00,47.1,38.6,30.28,NW,315,0.0,0.0,72,0.00,,,0.00,WUHU21623XXSP,2013-01-01 18:52:00,
2013-01-01 10:57:00,47.1,38.2,30.29,NW,315,0.0,8.1,71,0.00,,,0.00,WUHU21623XXSP,2013-01-01 18:57:00,
2013-01-01 11:02:00,47.3,38.4,30.28,North,0,0.0,8.1,71,0.00,,,0.00,WUHU21623XXSP,2013-01-01 19:02:00,
2013-01-01 11:07:00,47.7,38.7,30.28,North,0,6.5,6.9,71,0.00,,,0.00,WUHU21623XXSP,2013-01-01 19:07:00,
2013-01-01 11:12:00,47.8,39.2,30.28,North,0,0.0,6.9,72,0.00,,,0.00,WUHU21623XXSP,2013-01-01 19:12:00,
2013-01-01 11:17:00,48.0,39.4,30.28,NNE,22,0.0,0.0,72,0.00,,,0.00,WUHU21623XXSP,2013-01-01 19:17:00,
2013-01-01 11:22:00,48.4,39.4,30.27,NNE,22,0.0,0.0,71,0.00,,,0.00,WUHU21623XXSP,2013-01-01 19:22:00,
2013-01-01 11:27:00,48.7,39.4,30.27,North,0,0.0,0.0,70,0.00,,,0.00,WUHU21623XXSP,2013-01-01 19:27:00,
2013-01-01 11:32:00,48.7,39.0,30.27,North,0,0.0,0.0,69,0.00,,,0.00,WUHU21623XXSP,2013-01-01 19:32:00,
2013-01-01 11:37:00,49.1,39.0,30.27,NNE,22,0.0,5.4,68,0.00,,,0.00,WUHU21623XXSP,2013-01-01 19:37:00,
2013-01-01 11:42:00,49.5,39.3,30.27,NW,315,0.0,5.4,68,0.00,,,0.00,WUHU21623XXSP,2013-01-01 19:42:00,
2013-01-01 11:47:00,49.6,39.1,30.26,NW,315,0.0,0.0,67,0.00,,,0.00,WUHU21623XXSP,2013-01-01 19:47:00,
2013-01-01 11:52:00,49.8,38.9,30.26,NNE,22,0.0,0.0,66,0.00,,,0.00,WUHU21623XXSP,2013-01-01 19:52:00,
2013-01-01 11:57:00,50.2,39.2,30.26,NNW,337,0.0,0.0,66,0.00,,,0.00,WUHU21623XXSP,2013-01-01 19:57:00,
2013-01-01 12:02:00,50.2,39.2,30.26,NW,315,0.0,0.0,66,0.00,,,0.00,WUHU21623XXSP,2013-01-01 20:02:00,
2013-01-01 12:07:00,50.5,39.2,30.25,NNW,337,1.8,1.8,65,0.00,,,0.00,WUHU21623XXSP,2013-01-01 20:07:00,
2013-01-01 12:12:00,50.5,38.8,30.25,North,0,0.0,3.1,64,0.00,,,0.00,WUHU21623XXSP,2013-01-01 20:12:00,
2013-01-01 12:17:00,50.5,38.4,30.25,North,0,0.0,8.5,63,0.00,,,0.00,WUHU21623XXSP,2013-01-01 20:17:00,
2013-01-01 12:22:00,50.5,38.4,30.25,NNW,337,0.0,8.5,63,0.00,,,0.00,WUHU21623XXSP,2013-01-01 20:22:00,
2013-01-01 12:27:00,50.5,38.4,30.25,North,0,5.4,6.7,63,0.00,,,0.00,WUHU21623XXSP,2013-01-01 20:27:00,
2013-01-01 12:32:00,50.7,38.5,30.24,North,0,0.0,6.7,63,0.00,,,0.00,WUHU21623XXSP,2013-01-01 20:32:00,
2013-01-01 12:37:00,50.9,38.7,30.24,NNE,22,7.6,7.6,63,0.00,,,0.00,WUHU21623XXSP,2013-01-01 20:37:00,
2013-01-01 12:42:00,51.1,38.9,30.24,NNW,337,6.3,7.6,63,0.00,,,0.00,WUHU21623XXSP,2013-01-01 20:42:00,
2013-01-01 12:47:00,51.4,39.2,30.24,NE,45,0.0,6.3,63,0.00,,,0.00,WUHU21623XXSP,2013-01-01 20:47:00,
2013-01-01 12:52:00,51.6,39.4,30.24,NNE,22,0.4,0.4,63,0.00,,,0.00,WUHU21623XXSP,2013-01-01 20:52:00,
2013-01-01 12:57:00,52.0,39.3,30.24,North,0,0.0,0.0,62,0.00,,,0.00,WUHU21623XXSP,2013-01-01 20:57:00,
2013-01-01 13:02:00,52.0,39.3,30.24,North,0,0.0,0.0,62,0.00,,,0.00,WUHU21623XXSP,2013-01-01 21:02:00,
2013-01-01 13:07:00,52.2,39.1,30.24,North,0,4.3,4.3,61,0.00,,,0.00,WUHU21623XXSP,2013-01-01 21:07:00,
2013-01-01 13:12:00,52.3,38.8,30.24,NNE,22,5.4,8.1,60,0.00,,,0.00,WUHU21623XXSP,2013-01-01 21:12:00,
2013-01-01 13:17:00,52.3,38.8,30.24,North,0,2.9,8.1,60,0.00,,,0.00,WUHU21623XXSP,2013-01-01 21:17:00,
2013-01-01 13:22:00,52.3,38.4,30.23,North,0,2.5,14.5,59,0.00,,,0.00,WUHU21623XXSP,2013-01-01 21:22:00,
2013-01-01 13:27:00,52.3,38.8,30.23,NNE,22,2.5,14.5,60,0.00,,,0.00,WUHU21623XXSP,2013-01-01 21:27:00,
2013-01-01 13:32:00,52.3,39.2,30.24,NE,45,1.6,7.2,61,0.00,,,0.00,WUHU21623XXSP,2013-01-01 21:32:00,
2013-01-01 13:37:00,52.3,38.8,30.24,NNW,337,4.7,4.7,60,0.00,,,0.00,WUHU21623XXSP,2013-01-01 21:37:00,
2013-01-01 13:42:00,52.3,38.8,30.24,NNE,22,5.6,7.4,60,0.00,,,0.00,WUHU21623XXSP,2013-01-01 21:42:00,
2013-01-01 13:47:00,52.3,38.8,30.24,North,0,4.7,7.4,60,0.00,,,0.00,WUHU21623XXSP,2013-01-01 21:47:00,
2013-01-01 13:52:00,52.3,38.8,30.24,North,0,5.8,6.9,60,0.00,,,0.00,WUHU21623XXSP,2013-01-01 21:52:00,
2013-01-01 13:57:00,52.3,38.8,30.24,North,0,7.4,7.4,60,0.00,,,0.00,WUHU21623XXSP,2013-01-01 21:57:00,
2013-01-01 14:02:00,52.3,38.8,30.24,North,0,7.8,7.8,60,0.00,,,0.00,WUHU21623XXSP,2013-01-01 22:02:00,
2013-01-01 14:07:00,52.3,38.4,30.24,North,0,10.1,10.3,59,0.00,,,0.00,WUHU21623XXSP,2013-01-01 22:07:00,
2013-01-01 14:12:00,52.2,38.4,30.24,NNE,22,4.7,10.3,60,0.00,,,0.00,WUHU21623XXSP,2013-01-01 22:12:00,
2013-01-01 14:17:00,52.0,38.5,30.24,NW,315,12.1,12.1,60,0.00,,,0.00,WUHU21623XXSP,2013-01-01 22:17:00,
2013-01-01 14:22:00,52.0,38.5,30.24,NW,315,0.2,12.1,60,0.00,,,0.00,WUHU21623XXSP,2013-01-01 22:22:00,
2013-01-01 14:27:00,51.8,38.3,30.24,NNW,337,6.7,15.4,60,0.00,,,0.00,WUHU21623XXSP,2013-01-01 22:27:00,
2013-01-01 14:32:00,52.0,38.5,30.24,NNW,337,0.0,15.4,60,0.00,,,0.00,WUHU21623XXSP,2013-01-01 22:32:00,
2013-01-01 14:37:00,51.8,38.3,30.23,North,0,0.0,9.6,60,0.00,,,0.00,WUHU21623XXSP,2013-01-01 22:37:00,
2013-01-01 14:42:00,51.8,37.9,30.23,NNE,22,1.6,9.6,59,0.00,,,0.00,WUHU21623XXSP,2013-01-01 22:42:00,
2013-01-01 14:47:00,51.8,37.4,30.24,North,0,6.9,6.9,58,0.00,,,0.00,WUHU21623XXSP,2013-01-01 22:47:00,
2013-01-01 14:52:00,51.6,37.2,30.24,North,0,7.2,9.4,58,0.00,,,0.00,WUHU21623XXSP,2013-01-01 22:52:00,
2013-01-01 14:57:00,51.6,37.2,30.24,NNE,22,7.2,9.4,58,0.00,,,0.00,WUHU21623XXSP,2013-01-01 22:57:00,
2013-01-01 15:02:00,51.6,37.7,30.24,NNE,22,8.7,8.7,59,0.00,,,0.00,WUHU21623XXSP,2013-01-01 23:02:00,
2013-01-01 15:07:00,51.6,37.7,30.24,North,0,9.6,12.3,59,0.00,,,0.00,WUHU21623XXSP,2013-01-01 23:07:00,
2013-01-01 15:12:00,51.4,37.5,30.24,North,0,0.0,12.3,59,0.00,,,0.00,WUHU21623XXSP,2013-01-01 23:12:00,
2013-01-01 15:17:00,51.4,37.1,30.24,North,0,10.3,10.3,58,0.00,,,0.00,WUHU21623XXSP,2013-01-01 23:17:00,
2013-01-01 15:22:00,51.3,36.9,30.24,North,0,6.7,10.3,58,0.00,,,0.00,WUHU21623XXSP,2013-01-01 23:22:00,
2013-01-01 15:27:00,51.4,37.5,30.23,North,0,0.0,8.3,59,0.00,,,0.00,WUHU21623XXSP,2013-01-01 23:27:00,
2013-01-01 15:32:00,51.3,37.4,30.23,North,0,1.8,8.3,58,0.00,,,0.00,WUHU21623XXSP,2013-01-01 23:32:00,
2013-01-01 15:37:00,51.1,36.8,30.24,North,0,0.0,5.8,58,0.00,,,0.00,WUHU21623XXSP,2013-01-01 23:37:00,
2013-01-01 15:42:00,51.1,37.2,30.23,North,0,9.4,9.4,59,0.00,,,0.00,WUHU21623XXSP,2013-01-01 23:42:00,
2013-01-01 15:47:00,51.1,37.2,30.24,NNE,22,10.3,10.3,59,0.00,,,0.00,WUHU21623XXSP,2013-01-01 23:47:00,
2013-01-01 15:52:00,50.9,37.0,30.23,North,0,2.9,10.3,59,0.00,,,0.00,WUHU21623XXSP,2013-01-01 23:52:00,
2013-01-01 15:57:00,50.7,37.3,30.24,NNE,22,5.4,5.4,60,0.00,,,0.00,WUHU21623XXSP,2013-01-01 23:57:00,
2013-01-01 16:02:00,50.7,37.3,30.24,North,0,0.0,5.4,60,0.00,,,0.00,WUHU21623XXSP,2013-01-02 00:02:00,
2013-01-01 16:07:00,50.5,37.2,30.23,North,0,11.6,11.6,60,0.00,,,0.00,WUHU21623XXSP,2013-01-02 00:07:00,
2013-01-01 16:12:00,50.4,37.0,30.24,North,0,2.7,11.6,60,0.00,,,0.00,WUHU21623XXSP,2013-01-02 00:12:00,
2013-01-01 16:17:00,50.2,36.8,30.24,North,0,3.6,3.6,60,0.00,,,0.00,WUHU21623XXSP,2013-01-02 00:17:00,
2013-01-01 16:22:00,50.2,36.8,30.24,North,0,0.0,7.4,61,0.00,,,0.00,WUHU21623XXSP,2013-01-02 00:22:00,
2013-01-01 16:27:00,49.8,36.9,30.24,North,0,0.0,0.0,61,0.00,,,0.00,WUHU21623XXSP,2013-01-02 00:27:00,
2013-01-01 16:32:00,49.8,36.9,30.24,North,0,0.0,0.0,61,0.00,,,0.00,WUHU21623XXSP,2013-01-02 00:32:00,
2013-01-01 16:37:00,49.6,37.1,30.24,North,0,7.2,7.2,62,0.00,,,0.00,WUHU21623XXSP,2013-01-02 00:37:00,
2013-01-01 16:42:00,49.3,36.8,30.24,NNE,22,4.0,7.2,62,0.00,,,0.00,WUHU21623XXSP,2013-01-02 00:42:00,
2013-01-01 16:47:00,49.1,36.6,30.24,North,0,8.9,8.9,62,0.00,,,0.00,WUHU21623XXSP,2013-01-02 00:47:00,
2013-01-01 16:52:00,48.9,36.9,30.23,North,0,2.7,8.9,63,0.00,,,0.00,WUHU21623XXSP,2013-01-02 00:52:00,
2013-01-01 16:57:00,48.7,36.7,30.23,North,0,0.0,7.6,63,0.00,,,0.00,WUHU21623XXSP,2013-01-02 00:57:00,
2013-01-01 17:02:00,48.6,36.9,30.23,North,0,0.0,0.0,64,0.00,,,0.00,WUHU21623XXSP,2013-01-02 01:02:00,
2013-01-01 17:07:00,48.2,36.6,30.23,NNE,22,0.0,2.7,64,0.00,,,0.00,WUHU21623XXSP,2013-01-02 01:07:00,
2013-01-01 17:12:00,48.0,36.4,30.24,NNW,337,0.0,3.8,64,0.00,,,0.00,WUHU21623XXSP,2013-01-02 01:12:00,
2013-01-01 17:17:00,47.8,36.6,30.24,NNW,337,0.0,3.8,65,0.00,,,0.00,WUHU21623XXSP,2013-01-02 01:17:00,
2013-01-01 17:22:00,47.5,36.3,30.24,NNW,337,0.0,0.0,65,0.00,,,0.00,WUHU21623XXSP,2013-01-02 01:22:00,
2013-01-01 17:27:00,46.9,36.1,30.24,NNW,337,0.0,0.0,66,0.00,,,0.00,WUHU21623XXSP,2013-01-02 01:27:00,
2013-01-01 17:32:00,46.6,36.2,30.24,NNW,337,0.0,0.0,67,0.00,,,0.00,WUHU21623XXSP,2013-01-02 01:32:00,
2013-01-01 17:37:00,46.0,36.1,30.24,NNW,337,0.0,0.0,68,0.00,,,0.00,WUHU21623XXSP,2013-01-02 01:37:00,
2013-01-01 17:42:00,45.7,35.7,30.24,NNW,337,0.0,0.0,68,0.00,,,0.00,WUHU21623XXSP,2013-01-02 01:42:00,
2013-01-01 17:47:00,45.3,35.7,30.24,NNW,337,0.0,0.0,69,0.00,,,0.00,WUHU21623XXSP,2013-01-02 01:47:00,
2013-01-01 17:52:00,44.8,35.6,30.24,NNW,337,0.0,0.0,70,0.00,,,0.00,WUHU21623XXSP,2013-01-02 01:52:00,
2013-01-01 17:57:00,44.4,35.6,30.24,NNW,337,0.0,0.0,71,0.00,,,0.00,WUHU21623XXSP,2013-01-02 01:57:00,
2013-01-01 18:02:00,44.2,35.8,30.24,NNW,337,0.0,0.0,72,0.00,,,0.00,WUHU21623XXSP,2013-01-02 02:02:00,
2013-01-01 18:07:00,43.5,35.4,30.24,NNW,337,0.0,0.0,73,0.00,,,0.00,WUHU21623XXSP,2013-01-02 02:07:00,
2013-01-01 18:12:00,43.3,35.4,30.24,NNW,337,0.0,0.0,73,0.00,,,0.00,WUHU21623XXSP,2013-01-02 02:12:00,
2013-01-01 18:17:00,43.0,35.3,30.24,NNW,337,0.0,0.0,74,0.00,,,0.00,WUHU21623XXSP,2013-01-02 02:17:00,
2013-01-01 18:22:00,42.6,35.1,30.24,NNW,337,0.0,0.0,74,0.00,,,0.00,WUHU21623XXSP,2013-01-02 02:22:00,
2013-01-01 18:27:00,42.4,35.1,30.24,NNW,337,0.0,0.0,75,0.00,,,0.00,WUHU21623XXSP,2013-01-02 02:27:00,
2013-01-01 18:32:00,42.1,34.7,30.24,NNW,337,0.0,0.0,75,0.00,,,0.00,WUHU21623XXSP,2013-01-02 02:32:00,
2013-01-01 18:37:00,41.9,34.8,30.23,North,0,0.0,0.0,76,0.00,,,0.00,WUHU21623XXSP,2013-01-02 02:37:00,
2013-01-01 18:42:00,41.7,34.7,30.23,North,0,0.0,0.0,76,0.00,,,0.00,WUHU21623XXSP,2013-01-02 02:42:00,
2013-01-01 18:47:00,41.5,34.7,30.24,North,0,0.0,0.0,77,0.00,,,0.00,WUHU21623XXSP,2013-01-02 02:47:00,
2013-01-01 18:52:00,41.5,34.8,30.23,North,0,0.0,0.0,77,0.00,,,0.00,WUHU21623XXSP,2013-01-02 02:52:00,
2013-01-01 18:57:00,41.4,34.6,30.24,North,0,0.0,0.0,77,0.00,,,0.00,WUHU21623XXSP,2013-01-02 02:57:00,
2013-01-01 19:02:00,41.2,34.4,30.24,North,0,0.0,0.0,77,0.00,,,0.00,WUHU21623XXSP,2013-01-02 03:02:00,
2013-01-01 19:07:00,41.2,34.4,30.24,North,0,0.0,0.0,77,0.00,,,0.00,WUHU21623XXSP,2013-01-02 03:07:00,
2013-01-01 19:12:00,40.8,34.4,30.25,North,0,0.0,0.0,78,0.00,,,0.00,WUHU21623XXSP,2013-01-02 03:12:00,
2013-01-01 19:17:00,40.8,34.4,30.25,North,0,0.0,0.0,78,0.00,,,0.00,WUHU21623XXSP,2013-01-02 03:17:00,
2013-01-01 19:22:00,40.5,34.1,30.25,North,0,0.0,0.0,78,0.00,,,0.00,WUHU21623XXSP,2013-01-02 03:22:00,
2013-01-01 19:27:00,40.3,33.9,30.25,North,0,0.0,0.0,78,0.00,,,0.00,WUHU21623XXSP,2013-01-02 03:27:00,
2013-01-01 19:32:00,40.1,33.8,30.25,North,0,0.0,0.0,78,0.00,,,0.00,WUHU21623XXSP,2013-01-02 03:32:00,
2013-01-01 19:37:00,39.7,33.9,30.26,North,0,0.0,0.0,79,0.00,,,0.00,WUHU21623XXSP,2013-01-02 03:37:00,
2013-01-01 19:42:00,39.7,33.8,30.26,North,0,0.0,0.0,79,0.00,,,0.00,WUHU21623XXSP,2013-01-02 03:42:00,
2013-01-01 19:47:00,39.4,33.4,30.26,North,0,0.0,0.0,79,0.00,,,0.00,WUHU21623XXSP,2013-01-02 03:47:00,
2013-01-01 19:52:00,39.4,33.8,30.26,North,0,0.0,0.0,80,0.00,,,0.00,WUHU21623XXSP,2013-01-02 03:52:00,
2013-01-01 19:57:00,39.0,33.4,30.26,North,0,0.0,0.0,80,0.00,,,0.00,WUHU21623XXSP,2013-01-02 03:57:00,
2013-01-01 20:02:00,39.0,33.7,30.26,North,0,0.0,0.0,81,0.00,,,0.00,WUHU21623XXSP,2013-01-02 04:02:00,
2013-01-01 20:07:00,38.8,33.5,30.26,North,0,0.0,0.0,81,0.00,,,0.00,WUHU21623XXSP,2013-01-02 04:07:00,
2013-01-01 20:12:00,38.8,33.5,30.26,North,0,0.0,0.0,81,0.00,,,0.00,WUHU21623XXSP,2013-01-02 04:12:00,
2013-01-01 20:17:00,38.8,33.5,30.26,North,0,0.0,0.0,81,0.00,,,0.00,WUHU21623XXSP,2013-01-02 04:17:00,
2013-01-01 20:22:00,38.7,33.7,30.26,North,0,0.0,0.0,82,0.00,,,0.00,WUHU21623XXSP,2013-01-02 04:22:00,
2013-01-01 20:27:00,38.5,33.5,30.26,North,0,0.0,0.0,82,0.00,,,0.00,WUHU21623XXSP,2013-01-02 04:27:00,
2013-01-01 20:32:00,38.5,33.5,30.26,North,0,0.0,0.0,82,0.00,,,0.00,WUHU21623XXSP,2013-01-02 04:32:00,
2013-01-01 20:37:00,38.3,33.5,30.26,North,0,0.0,0.0,82,0.00,,,0.00,WUHU21623XXSP,2013-01-02 04:37:00,
2013-01-01 20:42:00,38.1,33.1,30.26,North,0,0.0,0.0,82,0.00,,,0.00,WUHU21623XXSP,2013-01-02 04:42:00,
2013-01-01 20:47:00,38.1,33.1,30.26,North,0,0.0,0.0,82,0.00,,,0.00,WUHU21623XXSP,2013-01-02 04:47:00,
2013-01-01 20:52:00,37.9,32.9,30.26,North,0,0.0,0.0,82,0.00,,,0.00,WUHU21623XXSP,2013-01-02 04:52:00,
2013-01-01 20:57:00,37.9,32.9,30.26,North,0,0.0,0.0,82,0.00,,,0.00,WUHU21623XXSP,2013-01-02 04:57:00,
2013-01-01 21:00:00,37.8,32.9,30.26,North,0,0.0,0.0,82,0.00,,,0.00,WUHU21623XXSP,2013-01-02 05:00:00,
2013-01-01 21:01:00,37.8,33.0,30.26,North,0,0.0,0.0,83,0.00,,,0.00,WUHU21623XXSP,2013-01-02 05:01:00,
2013-01-01 21:03:00,37.8,33.0,30.26,North,0,0.0,0.0,83,0.00,,,0.00,WUHU21623XXSP,2013-01-02 05:03:00,
2013-01-01 21:08:00,37.6,32.9,30.26,North,0,0.0,0.0,83,0.00,,,0.00,WUHU21623XXSP,2013-01-02 05:08:00,
2013-01-01 21:13:00,37.2,32.5,30.26,North,0,0.0,0.0,83,0.00,,,0.00,WUHU21623XXSP,2013-01-02 05:13:00,
2013-01-01 21:18:00,37.2,32.5,30.26,North,0,0.0,0.0,83,0.00,,,0.00,WUHU21623XXSP,2013-01-02 05:18:00,
2013-01-01 21:23:00,37.0,32.3,30.26,North,0,0.0,0.0,83,0.00,,,0.00,WUHU21623XXSP,2013-01-02 05:23:00,
2013-01-01 21:28:00,36.9,32.4,30.26,North,0,0.0,0.0,84,0.00,,,0.00,WUHU21623XXSP,2013-01-02 05:28:00,
2013-01-01 21:33:00,36.7,32.3,30.26,North,0,0.0,0.0,84,0.00,,,0.00,WUHU21623XXSP,2013-01-02 05:33:00,
2013-01-01 21:38:00,36.5,32.1,30.26,North,0,0.0,0.0,84,0.00,,,0.00,WUHU21623XXSP,2013-01-02 05:38:00,
2013-01-01 21:43:00,36.3,31.9,30.26,North,0,0.0,0.0,84,0.00,,,0.00,WUHU21623XXSP,2013-01-02 05:43:00,
2013-01-01 21:48:00,36.3,31.9,30.26,North,0,0.0,0.0,84,0.00,,,0.00,WUHU21623XXSP,2013-01-02 05:48:00,
2013-01-01 21:53:00,36.1,31.7,30.26,North,0,0.0,0.0,84,0.00,,,0.00,WUHU21623XXSP,2013-01-02 05:53:00,
2013-01-01 21:58:00,36.0,31.5,30.26,North,0,0.0,0.0,84,0.00,,,0.00,WUHU21623XXSP,2013-01-02 05:58:00,
2013-01-01 22:03:00,35.8,31.4,30.27,North,0,0.0,0.0,84,0.00,,,0.00,WUHU21623XXSP,2013-01-02 06:03:00,
2013-01-01 22:08:00,35.8,31.4,30.26,North,0,0.0,0.0,84,0.00,,,0.00,WUHU21623XXSP,2013-01-02 06:08:00,
2013-01-01 22:13:00,35.4,31.0,30.26,North,0,0.0,0.0,84,0.00,,,0.00,WUHU21623XXSP,2013-01-02 06:13:00,
2013-01-01 22:18:00,35.4,31.0,30.27,North,0,0.0,0.0,84,0.00,,,0.00,WUHU21623XXSP,2013-01-02 06:18:00,
2013-01-01 22:23:00,35.2,30.8,30.26,North,0,0.0,0.0,84,0.00,,,0.00,WUHU21623XXSP,2013-01-02 06:23:00,
2013-01-01 22:28:00,35.2,31.1,30.26,North,0,0.0,0.0,85,0.00,,,0.00,WUHU21623XXSP,2013-01-02 06:28:00,
2013-01-01 22:33:00,34.9,30.7,30.26,North,0,0.0,0.0,85,0.00,,,0.00,WUHU21623XXSP,2013-01-02 06:33:00,
2013-01-01 22:38:00,34.9,30.7,30.26,North,0,0.0,0.0,85,0.00,,,0.00,WUHU21623XXSP,2013-01-02 06:38:00,
2013-01-01 22:43:00,34.9,30.7,30.26,North,0,0.0,0.0,85,0.00,,,0.00,WUHU21623XXSP,2013-01-02 06:43:00,
2013-01-01 22:48:00,34.7,30.6,30.26,North,0,0.0,0.0,85,0.00,,,0.00,WUHU21623XXSP,2013-01-02 06:48:00,
2013-01-01 22:53:00,34.5,30.4,30.26,North,0,0.0,0.0,85,0.00,,,0.00,WUHU21623XXSP,2013-01-02 06:53:00,
2013-01-01 22:58:00,34.5,30.4,30.26,North,0,0.0,0.0,85,0.00,,,0.00,WUHU21623XXSP,2013-01-02 06:58:00,
2013-01-01 23:03:00,34.3,30.4,30.26,North,0,0.0,0.0,85,0.00,,,0.00,WUHU21623XXSP,2013-01-02 07:03:00,
2013-01-01 23:08:00,34.3,30.2,30.26,North,0,0.0,0.0,85,0.00,,,0.00,WUHU21623XXSP,2013-01-02 07:08:00,
2013-01-01 23:13:00,34.3,30.2,30.26,North,0,0.0,0.0,85,0.00,,,0.00,WUHU21623XXSP,2013-01-02 07:13:00,
2013-01-01 23:18:00,34.3,30.2,30.26,North,0,0.0,0.0,85,0.00,,,0.00,WUHU21623XXSP,2013-01-02 07:18:00,
2013-01-01 23:23:00,34.3,30.2,30.26,North,0,0.0,0.0,85,0.00,,,0.00,WUHU21623XXSP,2013-01-02 07:23:00,
2013-01-01 23:28:00,34.3,30.5,30.26,North,0,0.0,0.0,86,0.00,,,0.00,WUHU21623XXSP,2013-01-02 07:28:00,
2013-01-01 23:33:00,34.2,30.3,30.26,North,0,0.0,0.0,86,0.00,,,0.00,WUHU21623XXSP,2013-01-02 07:33:00,
2013-01-01 23:38:00,34.0,30.1,30.26,North,0,0.0,0.0,86,0.00,,,0.00,WUHU21623XXSP,2013-01-02 07:38:00,
2013-01-01 23:43:00,34.0,30.1,30.26,North,0,0.0,0.0,86,0.00,,,0.00,WUHU21623XXSP,2013-01-02 07:43:00,
2013-01-01 23:48:00,33.8,29.9,30.26,North,0,0.0,0.0,86,0.00,,,0.00,WUHU21623XXSP,2013-01-02 07:48:00,
2013-01-01 23:53:00,33.6,29.8,30.26,North,0,0.0,0.0,86,0.00,,,0.00,WUHU21623XXSP,2013-01-02 07:53:00,
2013-01-01 23:58:00,33.6,29.8,30.26,North,0,0.0,0.0,86,0.00,,,0.00,WUHU21623XXSP,2013-01-02 07:58:00,